www.pogodaiklimat.ru
Время
(UTC), дата
07 10.11
08 10.11
09 10.11
10 10.11
11 10.11
12 10.11
13 10.11
14 10.11
15 10.11
16 10.11
17 10.11
18 10.11
19 10.11
20 10.11
21 10.11
22 10.11
23 10.11
00 11.11
01 11.11
02 11.11
03 11.11
04 11.11
05 11.11
06 11.11
07 11.11
08 11.11
09 11.11
10 11.11
11 11.11
12 11.11
13 11.11
14 11.11
15 11.11
16 11.11
17 11.11
18 11.11
19 11.11
20 11.11
21 11.11
22 11.11
23 11.11
00 12.11
01 12.11
02 12.11
03 12.11
04 12.11
05 12.11
06 12.11
07 12.11
08 12.11
09 12.11
10 12.11
11 12.11
12 12.11
13 12.11
14 12.11
15 12.11
16 12.11
17 12.11
18 12.11
19 12.11
20 12.11
21 12.11
22 12.11
23 12.11
00 13.11
01 13.11
02 13.11
03 13.11
04 13.11
05 13.11
06 13.11
07 13.11
08 13.11
09 13.11
10 13.11
11 13.11
12 13.11
13 13.11
14 13.11
15 13.11
16 13.11
17 13.11
18 13.11
19 13.11
21 13.11
00 14.11
01 14.11
02 14.11
03 14.11
04 14.11
05 14.11
06 14.11
07 14.11
08 14.11
09 14.11
10 14.11
11 14.11
12 14.11
13 14.11
14 14.11
15 14.11
16 14.11
17 14.11
18 14.11
19 14.11
20 14.11
21 14.11
22 14.11
23 14.11
00 15.11
01 15.11
02 15.11
03 15.11
04 15.11
05 15.11
06 15.11
07 15.11
08 15.11
09 15.11
10 15.11
11 15.11
12 15.11
13 15.11
14 15.11
15 15.11
16 15.11
17 15.11
18 15.11
19 15.11
20 15.11
21 15.11
22 15.11
23 15.11
00 16.11
01 16.11
02 16.11
03 16.11
04 16.11
05 16.11
06 16.11
07 16.11
08 16.11
09 16.11
10 16.11
11 16.11
12 16.11
13 16.11
14 16.11
15 16.11
16 16.11
17 16.11
18 16.11
19 16.11
20 16.11
21 16.11
22 16.11
23 16.11
00 17.11
01 17.11
02 17.11
03 17.11
04 17.11
05 17.11
06 17.11
07 17.11
Ветер
(напр.,м/с)
Видим. Явления Облачность Т
(С)
Тd
(С)
f
(%)
Тe
(С)
Тes
(С)
Комфортность P
(гПа)
Po
(гПа)
Тmin
(С)
Tmax
(С)
R
(мм)
R24
(мм)
S
(см)
СЗ 2
{2}
н/о н/о +3.9 +3.4 97 +1 +1 по сезону 1010.7 961.0 0.2
В 2
{3}
н/о н/о +4.7 +3.4 91 +2 +2 тепло 1011.2 961.6
С 1
{3}
20 км {дождь} 10/9 480 м
[Sc]
+5.3 +2.8 84 +4 +4 по сезону 1011.5 962.0
С 1
{3}
н/о н/о +5.6 +3.1 84 +4 +4 по сезону 1011.8 962.3
В 1
{3}
н/о н/о +6.6 +3.2 79 +6 +6 тепло 1011.8 962.5
С 1
{3}
22 км {дождь} 9/9 300 м
[Sc]
+6.9 +3.0 76 +6 +7 по сезону 1011.8 962.6
В 2
{4}
н/о н/о +7.1 +3.0 75 +6 +6 по сезону 1012.0 962.8
СВ 3
{5}
н/о н/о +7.6 +3.6 76 +5 +5 по сезону 1012.2 963.1
С 3
{5}
25 км 9/4 600 м
[Cu Sc Ac As]
+7.6 +2.9 72 +5 +5 по сезону 1012.8 963.6
С 1
{4}
н/о н/о +5.8 +3.3 84 +5 +5 по сезону 1013.7 964.2
С 2
{3}
н/о н/о +4.7 +3.0 89 +2 +2 по сезону 1014.5 964.7
СЗ 1
{5}
25 км 1/1 750 м
[Sc Ci fib]
+3.5 +2.6 94 +2 +2 прохладно 1015.4 965.4 +7.8
ЮЗ 1
{2}
н/о н/о +3.4 +2.4 93 +2 +2 по сезону 1015.9 965.8
З 1
{2}
н/о н/о +2.7 +1.9 94 +2 +2 по сезону 1015.9 965.7
З 1
{3}
25 км 4/4 750 м
[Sc Ci fib]
+1.6 +1.0 96 +1 +1 прохладно 1016.0 965.6
ЮЗ 1
{2}
н/о н/о +2.2 +1.8 97 +2 +2 по сезону 1015.5 965.2
СЗ 2
{2}
н/о н/о +3.3 +2.5 94 +1 +1 по сезону 1015.5 965.4
СВ 1
{3}
н/о н/о +4.0 +3.3 95 +4 +4 по сезону 1016.1 966.1
С 1
{3}
н/о н/о +4.8 +3.3 90 +3 +3 по сезону 1016.1 966.3
С 1
{2}
н/о н/о +4.3 +3.4 94 +4 +4 тепло 1015.6 965.7
С 2
{3}
н/о н/о +3.8 +2.7 93 +1 +1 по сезону 1015.3 965.3
С 1
{2}
н/о н/о +3.0 +2.5 97 +1 +1 по сезону 1015.7 965.6
С 2
{3}
н/о н/о +2.6 +1.9 95 -0 -0 по сезону 1015.9 965.7
СВ 1
{3}
9000 м дымка 8/8 450 м
[Sc]
+2.7 +1.9 94 +1 +1 по сезону 1015.5 965.3 +1.2
СЗ 1
{2}
н/о н/о +4.0 +2.9 93 +2 +2 по сезону 1014.9 965.0
С 1
{4}
н/о н/о +4.6 +3.1 90 +4 +4 тепло 1014.6 964.8
З 1
{4}
14 км дымка 10/4 240 м
[Sc Ac As]
+5.1 +3.4 89 +4 +4 по сезону 1013.9 964.2
З 2
{3}
н/о н/о +6.1 +3.2 82 +4 +4 по сезону 1013.0 963.6
З 2
{3}
н/о н/о +6.4 +2.0 73 +5 +5 по сезону 1012.1 962.8
ЮЗ 2
{4}
18 км 10/4 270 м
[Sc Ac As]
+6.7 +2.0 72 +5 +5 по сезону 1011.1 961.9
ЮЗ 2
{4}
н/о н/о +7.1 +2.9 75 +6 +6 по сезону 1010.3 961.2
ЮЗ 3
{4}
н/о н/о +7.2 +2.6 73 +5 +5 по сезону 1009.9 960.8
ЮЗ 3
{5}
17 км 9/1 450 м
[Sc Ac As]
+7.6 +1.8 67 +5 +5 по сезону 1009.7 960.7
З 2
{5}
н/о н/о +7.2 +2.4 72 +5 +5 по сезону 1009.9 960.8
З 2
{5}
н/о н/о +5.8 +2.6 80 +3 +3 по сезону 1010.3 960.9
З 2
{5}
19 км 8/0
[Ac As]
+5.8 +2.6 80 +4 +4 по сезону 1010.4 961.0 +7.7
З 3
{4}
н/о н/о +5.9 +3.3 83 +3 +3 по сезону 1010.5 961.1
ЮЗ 4
{6}
н/о н/о +6.4 +2.4 76 +3 +3 по сезону 1010.7 961.4
ЮЗ 4
{6}
16 км слаб. дождь 10/5 800 м
[Frnb Ac As]
+6.6 +2.6 76 +3 +3 по сезону 1011.0 961.7
ЮЗ 4
{8}
н/о н/о +6.8 +2.1 72 +3 +3 по сезону 1011.7 962.4
ЮЗ 3
{6}
н/о н/о +6.1 +3.1 81 +3 +3 по сезону 1012.6 963.2
З 1
{8}
н/о н/о +5.2 +2.8 84 +4 +4 по сезону 1013.0 963.4
ЮЗ 3
{6}
н/о н/о +5.3 +2.0 79 +2 +2 по сезону 1012.5 962.9
З 2
{4}
н/о н/о +3.6 +2.1 90 +1 +1 по сезону 1013.1 963.2
ЮВ 1
{6}
н/о н/о +2.8 +2.0 94 +1 +1 по сезону 1012.8 962.8
СЗ 1
{3}
н/о н/о +2.3 +1.7 96 +2 +2 по сезону 1012.9 962.8
СЗ 1
{3}
н/о н/о +0.7 0.0 95 0 0 по сезону 1012.9 962.5
ЮВ 1
{6}
30 км {дождь} 1/1 1500 м
[Sc]
+1.0 +0.5 96 -1 -1 прохладно 1012.9 962.5 +0.3
ЮЗ 1
{3}
н/о н/о +1.1 0.0 92 -1 -1 по сезону 1012.9 962.6
ЮЗ 1
{3}
н/о н/о +2.5 +1.1 90 +2 +2 по сезону 1012.9 962.8
ЮЗ 3
{4}
35 км 1/1 900 м
[Sc]
+5.2 +1.1 75 +2 +4 прохладно 1011.2 961.7
ЮЗ 3
{4}
н/о н/о +7.1 +0.2 61 +5 +5 по сезону 1010.8 961.6
Ю 3
{6}
н/о н/о +8.3 -0.4 54 +6 +6 тепло 1009.6 960.7
Ю 3
{7}
35 км 1/1 1350 м
[Sc Ci fib]
+8.9 -1.2 49 +7 +10 по сезону 1008.4 959.7
ЮЗ 4
{7}
н/о н/о +9.1 -1.8 46 +7 +7 по сезону 1008.0 959.3
ЮЗ 4
{7}
н/о н/о +9.4 -0.1 51 +7 +7 по сезону 1007.0 958.4
З 3
{7}
35 км 5/5 1500 м
[Sc]
+8.8 +0.5 56 +7 +7 по сезону 1007.0 958.3
З 2
{5}
н/о н/о +7.5 +0.5 61 +6 +6 по сезону 1007.1 958.2
З 2
{3}
н/о н/о +5.3 +1.0 74 +3 +3 по сезону 1007.6 958.3
З 1
{7}
30 км 1/1 1500 м
[Sc]
+4.5 +0.9 77 +3 +3 по сезону 1007.5 958.0 +9.8
ЮЗ 1
{3}
н/о н/о +2.5 +1.0 90 +1 +1 по сезону 1007.1 957.3
СВ 1
{2}
н/о н/о +2.5 +0.6 87 +1 +1 по сезону 1006.4 956.6
В 1
{3}
30 км 1/0
[Ac lent]
+1.4 +0.2 92 -1 -1 холодно 1006.4 956.4
СЗ 2
{3}
н/о н/о +0.3 -0.5 94 -3 -3 холодно 1006.3 956.1
СЗ 1
{3}
н/о н/о -0.9 -1.6 95 -2 -2 по сезону 1006.2 955.8
С 1
{4}
н/о н/о +1.3 +0.2 92 -1 -1 прохладно 1006.1 956.1
ЮЗ 2
{2}
н/о н/о +2.3 +1.3 93 -0 -0 по сезону 1005.8 956.0
СЗ 1
{3}
н/о н/о +2.5 +1.7 94 +1 +1 по сезону 1005.7 956.0
З 1
{3}
н/о н/о +2.4 +1.8 96 +2 +2 по сезону 1005.7 956.0
З 1
{2}
н/о н/о +2.2 +1.6 96 0 0 по сезону 1006.0 956.2
ЮЗ 1
{3}
н/о н/о +1.4 +0.8 96 -1 -1 по сезону 1005.9 956.0
С 1
{3}
25 км {ливн. осадки} 1/1 1050 м
[Sc Ac lent]
+0.4 -0.1 96 -0 -0 прохладно 1006.6 956.4 -0.9
З 2
{2}
н/о н/о +0.3 -0.4 95 -3 -3 прохладно 1007.3 957.1
З 1
{2}
н/о н/о +2.4 +0.7 89 +1 +1 по сезону 1007.5 957.7
ЮЗ 2
{3}
40 км 1/1 900 м
[Cu hum Ac lent]
+4.4 +1.0 79 +2 +4 прохладно 1007.7 958.2
З 2
{3}
н/о н/о +5.4 +0.8 72 +4 +4 по сезону 1007.8 958.5
ЮЗ 1
{4}
н/о н/о +6.9 +1.0 66 +7 +7 тепло 1007.6 958.6
Ю 1
{4}
40 км 4/1 720 м
[Cu med, cong Ac lent Ci fib]
+7.7 0.0 58 +7 +10 по сезону 1007.2 958.3
Ю 1
{4}
н/о н/о +8.9 -0.5 52 +9 +9 тепло 1006.5 957.9
З 2
{5}
н/о н/о +8.4 -1.7 49 +8 +8 тепло 1006.6 957.9
З 2
{5}
45 км 8/8 1200 м
[Sc]
+8.0 +0.1 57 +7 +7 по сезону 1006.9 958.1
З 1
{3}
н/о н/о +6.9 +0.7 65 +6 +6 по сезону 1007.1 958.1
ЮЗ 3
{3}
н/о н/о +6.7 +0.2 63 +4 +4 по сезону 1007.4 958.3
З 2
{5}
40 км 1/1 1200 м
[Sc]
+4.3 +0.9 79 +2 +2 прохладно 1008.0 958.5 +9.2
З 1
{4}
н/о н/о +3.3 +0.5 82 +2 +2 по сезону 1008.3 958.6
З 1
{4}
35 км ясно +0.8 0.0 94 0 0 прохладно 1007.7 957.6
СЗ 1
{4}
н/о н/о -0.2 -0.6 97 -1 -1 прохладно 1006.0 955.8
З 1
{5}
н/о н/о -0.6 -0.8 99 -3 -3 прохладно 1005.6 955.3
СЗ 1
{3}
н/о н/о -0.2 -0.7 96 -1 -1 по сезону 1004.7 954.5
штиль 0
{5}
н/о н/о +0.3 -0.1 97 -1 -1 прохладно 1003.8 953.8
С 1
{4}
н/о н/о +0.4 -0.1 96 -0 -0 по сезону 1003.4 953.4
ЮЗ 1
{3}
н/о н/о +1.1 +0.3 94 +1 +1 по сезону 1003.2 953.3
СЗ 2
{5}
25 км осадки на расстоянии 10/1 1500 м
[Sc Ac As]
+1.3 +0.5 94 -2 -2 прохладно 1003.1 953.3 -0.6
ЮЗ 1
{2}
н/о н/о +2.0 +0.6 90 0 0 по сезону 1003.8 954.1
З 2
{4}
н/о н/о +2.7 +0.7 87 0 0 по сезону 1004.5 954.9
В 2
{6}
9000 м слаб. дождь со снегом 10/6 1050 м
[Sc Ac As]
+3.5 +1.7 88 0 +1 прохладно 1003.1 953.7
СВ 3
{6}
н/о н/о +4.9 +1.6 79 +1 +1 по сезону 1002.2 953.1
С 2
{5}
н/о н/о +5.0 +2.4 83 +2 +2 по сезону 1001.6 952.5
З 2
{6}
25 км осадки на расстоянии 10/4 450 м
[Sc Ac As]
+5.3 +2.0 79 +3 +4 прохладно 1000.9 951.9
СЗ 1
{3}
н/о н/о +5.5 +2.0 78 +6 +6 по сезону 1000.6 951.7
С 2
{4}
н/о н/о +4.9 +3.0 87 +3 +3 по сезону 999.2 950.2 0.1
С 1
{4}
25 км {дождь} 10/1 300 м
[Frnb As op]
+4.9 +3.1 88 +5 +5 по сезону 998.3 949.4
СЗ 2
{4}
н/о н/о +4.4 +3.2 92 +2 +2 по сезону 998.3 949.3
ЮЗ 2
{4}
н/о н/о +4.9 +2.8 86 +2 +2 по сезону 997.8 948.9
ЮЗ 2
{5}
20 км осадки на расстоянии 10/1 300 м
[Frnb As op]
+4.7 +3.0 89 +2 +2 прохладно 997.6 948.7 +5.6
З 3
{4}
н/о н/о +4.5 +3.1 91 +1 +1 по сезону 997.6 948.6
Ю 1
{5}
н/о н/о +4.3 +3.0 91 +3 +3 по сезону 996.8 947.8
СЗ 2
{5}
20 км 10/0 2000 м
[Ac As]
+3.9 +3.0 94 +1 +1 прохладно 996.7 947.7
Ю 1
{3}
н/о н/о +4.1 +2.8 91 +3 +3 по сезону 996.4 947.4
СЗ 1
{2}
н/о н/о +3.6 +2.8 94 +2 +2 по сезону 995.6 946.6
ЮЗ 3
{5}
н/о н/о +3.8 +2.9 94 0 0 прохладно 995.5 946.5
ЮЗ 3
{5}
н/о н/о +3.9 +2.9 93 0 0 по сезону 995.3 946.3
ЮЗ 3
{5}
н/о н/о +4.0 +2.6 91 0 0 по сезону 995.6 946.6 0.5
ЮЗ 5
{8}
н/о н/о +2.9 +2.0 94 -3 -3 холодно 996.6 947.4 2
З 2
{7}
н/о н/о +1.9 +1.3 96 -2 -2 по сезону 998.0 948.5 2
ЮЗ 6
{9}
н/о н/о +2.5 +1.3 92 -3 -3 по сезону 999.0 949.6 0.1
ЮЗ 7
{9}
25 км в посл. час дождь 4/1 300 м
[Frnb Ac lent]
+2.2 +0.8 90 -4 -4 холодно 1000.2 950.7 +1.7 4.4
ЮЗ 5
{10}
н/о н/о +2.6 +0.7 87 -3 -3 прохладно 1001.5 952.0
ЮЗ 6
{9}
н/о н/о +3.3 +1.2 86 -2 -2 по сезону 1001.8 952.4
Ю 3
{10}
40 км 1/1 300 м
[Sc Ac lent]
+5.0 +1.5 78 +2 +3 по сезону 1001.7 952.6
З 3
{7}
н/о н/о +5.9 +1.4 73 +3 +3 по сезону 1001.8 952.9
ЮЗ 3
{6}
н/о н/о +6.8 +1.9 71 +4 +4 по сезону 1001.5 952.7
ЮЗ 4
{10}
50 км 3/3 600 м
[Sc Ci sp]
+7.1 +1.1 66 +4 +6 по сезону 1001.2 952.5
ЮЗ 3
{5}
н/о н/о +7.3 +1.9 69 +5 +5 по сезону 1000.9 952.3
ЮВ 2
{6}
н/о н/о +8.0 +0.9 61 +6 +6 по сезону 1000.9 952.4
СЗ 1
{6}
50 км 3/3 900 м
[Sc Ci sp]
+7.7 +1.0 63 +7 +8 по сезону 1001.4 952.8
СЗ 1
{3}
н/о н/о +5.9 +1.5 73 +5 +5 по сезону 1002.0 953.1
С 1
{3}
н/о н/о +4.5 +1.9 83 +4 +4 по сезону 1002.8 953.6
СЗ 1
{6}
50 км 3/0
[Ci sp]
+4.5 +1.5 81 +3 +3 по сезону 1003.0 953.8 +8.3
СЗ 1
{2}
н/о н/о +1.9 +1.1 94 -0 -0 прохладно 1003.8 954.1
З 1
{3}
н/о н/о +2.3 +1.0 91 +2 +2 по сезону 1004.4 954.7
ЮЗ 1
{3}
30 км 9/0
[As trans Ci sp]
+2.2 +1.0 92 0 0 прохладно 1004.7 955.0
СЗ 1
{2}
н/о н/о +1.8 +0.6 92 -0 -0 по сезону 1005.0 955.2
ЮЗ 2
{2}
н/о н/о +2.0 +0.9 92 -1 -1 по сезону 1005.6 955.8
З 2
{3}
н/о н/о +2.1 +1.1 93 -1 -1 прохладно 1005.6 955.8
З 1
{2}
н/о н/о +1.9 +1.3 96 -0 -0 по сезону 1005.7 955.9
З 1
{2}
н/о н/о +2.3 +1.4 94 0 0 по сезону 1006.8 957.0
Ю 1
{3}
н/о н/о +2.6 +1.6 93 +1 +1 по сезону 1006.8 957.0 0.1
З 1
{3}
н/о н/о +1.4 +1.2 99 -1 -1 по сезону 1007.2 957.2
ЮЗ 2
{3}
н/о н/о +1.9 +1.7 99 -1 -1 по сезону 1007.7 957.8
ЮЗ 2
{3}
12 км слаб. дождь 9/4 1200 м
[Sc diur, vesp As op]
+2.9 +2.1 94 0 0 по сезону 1008.6 958.8 +1.3 0.1
ЮЗ 2
{4}
н/о н/о +3.4 +2.5 94 +1 +1 по сезону 1009.7 959.9
ЮЗ 2
{4}
н/о н/о +4.0 +2.8 92 +2 +2 тепло 1010.4 960.7
З 2
{4}
25 км {дождь} 8/8 600 м
[Cu Sc]
+4.6 +2.7 87 +2 +3 по сезону 1010.6 961.0
ЮЗ 3
{5}
н/о н/о +5.6 +3.0 83 +2 +2 по сезону 1011.1 961.7
ЮЗ 6
{8}
н/о н/о +6.6 +2.0 72 +2 +2 по сезону 1011.2 961.9
ЮЗ 3
{8}
30 км {дождь} 3/3 750 м
[Cu med, cong]
+7.4 +2.0 69 +5 +7 по сезону 1010.5 961.4
ЮЗ 2
{5}
н/о н/о +7.8 +1.4 64 +6 +6 по сезону 1010.0 961.0
З 2
{5}
н/о н/о +8.9 +1.2 58 +8 +8 тепло 1009.6 960.8
СВ 2
{5}
30 км 3/1 800 м
[Sc diur, vesp Ac lent Ci fib]
+7.9 +1.1 62 +7 +7 по сезону 1010.1 961.1
С 1
{4}
н/о н/о +6.0 +1.8 74 +5 +5 по сезону 1010.3 961.0
С 2
{3}
н/о н/о +4.1 +1.8 85 +2 +2 по сезону 1011.3 961.6
СЗ 2
{5}
30 км 1/1 1500 м
[Sc Ci fib]
+2.6 +0.8 88 0 0 прохладно 1012.0 962.0 +8.9
СЗ 1
{3}
н/о н/о +2.0 +0.7 91 +2 +2 по сезону 1012.2 962.1
С 1
{3}
н/о н/о +1.1 +0.3 94 -1 -1 по сезону 1012.4 962.1
СЗ 1
{4}
18 км 4/3 700 м
[Sc Ci sp]
+1.1 +0.6 96 0 0 прохладно 1012.6 962.3
СЗ 1
{3}
н/о н/о +0.7 +0.3 97 0 0 по сезону 1012.7 962.3
ЮЗ 1
{3}
н/о н/о 0.0 -0.4 97 -2 -2 по сезону 1012.4 961.9
З 1
{4}
н/о н/о +0.2 -0.5 95 -1 -1 прохладно 1011.9 961.4
ЮЗ 2
{2}
н/о н/о +0.5 0.0 96 -3 -3 по сезону 1011.2 960.8
З 1
{2}
н/о н/о -0.2 -0.9 95 -1 -1 по сезону 1010.7 960.2
ЮЗ 2
{2}
н/о н/о +0.9 0.0 94 -2 -2 прохладно 1009.7 959.5
З 2
{2}
н/о н/о +0.8 +0.1 95 -2 -2 по сезону 1009.0 958.8
З 1
{2}
н/о н/о +0.5 -0.1 96 -2 -2 по сезону 1008.5 958.3
ЮЗ 1
{2}
10 км дымка 9/9 450 м
[Sc]
+1.4 +0.4 93 -1 -1 по сезону 1007.5 957.5 -0.2
СЗ 2
{4}
н/о н/о +2.0 +1.2 94 -1 -1 по сезону 1007.4 957.5
Местоположение метеостанции Женева (Швейцария): широта 46.25 долгота 6.13 высота над уровнем моря 416 м.
В архиве по умолчанию представлена погода в Женеве за последнюю неделю. Архивные данные за месяц целиком и за предыдущие месяцы, начиная с января 2011 года, Вы можете получить, выбрав интересующий диапазон дат из раскрывающегося списка и нажав кнопку "Найти!".
*Определитесь, кто Вы:
Внимание! Время в таблицах - всемирное. Для получения местного времени необходимо прибавить поправку, которая равна 1 ч.
Смотрите также архив погоды в соседних городах и на ближайших метеорологических станциях:
Партнеры нашего сайта:      
Пояснения к столбцам:
  • Ветер - указаны скорость ветра в м/с - средняя за 10 мин, порывы в срок и между сроками (в фигурных скобках) и направление, откуда дует ветер: С - северный,
  • СВ - северо-восточный, В - восточный, ЮВ - юго-восточный, Ю - южный, ЮЗ - юго-западный, З - западный, СЗ - северо-западный.
  • Видимость - горизонтальная дальность видимости в метрах или километрах. При видимости от 1 до 10 км при отсутствии осадков обычно наблюдается дымка, при ухудшении видимости до 1 км и менее - туман. В сухую погоду видимость может ухудшаться дымом, пылью или мглою.
  • Явления - указаны атмосферные явления, наблюдавшиеся в срок или в последний час перед сроком; фигурными скобками обозначены явления, наблюдавшиеся между сроками (за 1-3 часа до срока); квадратными скобками обозначены град или гололедные отложения с указанием их диаметра в мм.
  • Облачность - указаны через наклонную черту общая и нижняя облачность в баллах и высота нижней границы облаков в метрах; квадратными скобками обозначены формы облаков: Ci - перистые, Cs - перисто-слоистые, Cc - перисто-кучевые, Ac - высококучевые, As - высокослоистые, Sc - слоисто-кучевые, Ns - слоисто-дождевые, Cu - кучевые, Cb - кучево-дождевые. Подробнее классификацию облаков см. в Атласе облаков (PDF).
  • T - Температура воздуха - температура, измеренная на высоте 2 м над землей.
  • Td - Температура точки росы - температура, при понижении до которой содержащийся в воздухе водяной пар достигнет насыщения.
  • f - Относительная влажность воздуха - влажноcть воздуха, измеренная на высоте 2 м над землей.
  • Te - Эффективная температура - температура, которую ощущает одетый по сезону человек в тени. Характеристика душности погоды. При расчете учитывается влияние влажности воздуха и скорости ветра на теплоощущения человека.
  • Tes - Эффективная температура на солнце - температура, которую ощущает человек, с поправкой на солнечный нагрев. Характеристика знойности погоды. Зависит от высоты солнца над горизонтом, облачности и скорости ветра. Ночью, в пасмурную погоду, а также при ветре 12 м/с и более поправка равна нулю.
  • P - Атмосферное давление - приведенное к уровню моря атмосферное давление.
  • Po - Атмосферное давление - измеренное на уровне метеостанции атмосферное давление.
  • Tmin - Минимальная температура - минимум температуры воздуха на высоте 2 м над землей.
  • Tmax - Максимальная температура - максимум температуры воздуха на высоте 2 м над землей.
  • R - Количество осадков - Количество выпавших осадков за период времени, мм. При наведении курсора мыши на число - период времени, за который выпало указанное количество осадков.
  • R24 - Количество осадков - Количество выпавших осадков за 24 часа, мм.
  • S - Снежный покров - Высота снежного покрова, см. При наведении курсора мыши на число - состояние снежного покрова и степень покрытия местности в баллах.